JCSAT-2B (41471 NORAD) Tracking and Keplerian Element Data

This shows tracking and keplerian element data for the satellite.

Feedback or suggestion? Click here.




ElementValue
Catalog41471
NameJCSAT-2B
Epoch Orbit2970
Epoch Day159.78035525
Epoch Year2024
RAAN14.6738
Inclination0.0153
Eccentricity7.73E-05
Argument of Perigee112.8376
Mean Anonmoly204.0592
Mean Motion1.00270553
Decay Rate-1.66E-06
L11 41471U 16028A 24159.78035525 -.00000166 00000+0 00000+0 0 9992
L22 41471 0.0153 14.6738 0000773 112.8376 204.0592 1.00270553 29705



Live tracking and technical data element details for JCSAT-2B (NORAD 41471). JCSAT-2B can be tracked NOW for your location showing map with azimuth and elevation plus other details from your city location.







IsCatalogInMostPopularTable: catalog: 41471, numindb: 626
Update: records affected: 1



GetName: 41471 JCSAT-2B

Hit Count: updated at: Tue, 18 Jun 2024 00:16:28 GMT